Weather History for Page, AZ

Change the Weather History Date:

Saturday, April 5, 2014

  Actual Average Record
Temperature  
Mean Temperature 54 °F -  
Max Temperature 62 °F 64 °F 86 °F (1961)
Min Temperature 45 °F 41 °F 32 °F (1958)
Degree Days  
Heating Degree Days 12    
Growing Degree Days 4 (Base 50)    
Moisture  
Dew Point 21 °F    
Average Humidity 27    
Maximum Humidity 36    
Minimum Humidity 13    
Precipitation  
Precipitation 0.00 in - - ()
Sea Level Pressure  
Sea Level Pressure 29.78 in    
Wind  
Wind Speed 5 mph (WNW)    
Max Wind Speed 13 mph    
Max Gust Speed 18 mph    
Visibility 10 miles    
Events      
Averages and records for this station are not official NWS values.
T = Trace of Precipitation, MM = Missing Value Source: NWS Daily Summary

Daily Weather History Graph

Daily Weather History Graph

Search for Another Location

Airport:

Trip Planner

Search our weather history database for the weather conditions in past years. The results will help you decide how hot, cold, wet, or windy it might be!

Date:

Astronomy

Apr. 05, 2014 Rise Set
Actual Time 6:05 AM MST 6:51 PM MST
Civil Twilight 5:39 AM MST 7:18 PM MST
Nautical Twilight 5:08 AM MST 7:49 PM MST
Astronomical Twilight 4:36 AM MST 8:21 PM MST
Moon 10:21 AM MST (4/5) No Moon Set
Length of Visible Light 13h 38m
Length of Day
12h 46m
Waxing Crescent, 35% of the Moon is Illuminated
Apr 5
Waxing Crescent
Apr 7
First Quarter
Apr 15
Full
Apr 22
Last Quarter
Apr 28
New

Hourly Weather History & Observations

Time (MST) Temp. Windchill Dew Point Humidity Pressure Visibility Wind Dir Wind Speed Gust Speed Precip Events Conditions
12:53 AM 52.0 °F - 17.1 °F 25% 29.75 in 10.0 mi West 4.6 mph - N/A   Clear
1:53 AM 51.1 °F - 18.0 °F 27% 29.73 in 10.0 mi SW 3.5 mph - N/A   Clear
2:53 AM 50.0 °F - 18.0 °F 28% 29.72 in 10.0 mi Calm Calm - N/A   Clear
3:53 AM 48.0 °F - 19.0 °F 32% 29.71 in 10.0 mi West 3.5 mph - N/A   Clear
4:53 AM 46.9 °F - 19.0 °F 33% 29.71 in 10.0 mi SSW 3.5 mph - N/A   Clear
5:53 AM 46.0 °F 44.8 °F 19.0 °F 34% 29.73 in 10.0 mi West 3.5 mph - N/A   Clear
6:53 AM 48.9 °F - 19.0 °F 31% 29.75 in 10.0 mi Calm Calm - N/A   Clear
7:53 AM 50.0 °F - 19.9 °F 31% 29.76 in 10.0 mi Calm Calm - N/A   Clear
8:53 AM 54.0 °F - 19.9 °F 26% 29.77 in 10.0 mi NNW 8.1 mph - N/A   Scattered Clouds
9:53 AM 57.0 °F - 19.9 °F 24% 29.78 in 10.0 mi WNW 8.1 mph - N/A   Mostly Cloudy
10:53 AM 57.9 °F - 23.0 °F 26% 29.79 in 10.0 mi NW 10.4 mph - N/A   Partly Cloudy
11:53 AM 59.0 °F - 21.0 °F 23% 29.78 in 10.0 mi NNW 11.5 mph - N/A   Scattered Clouds
12:53 PM 60.1 °F - 19.9 °F 21% 29.77 in 10.0 mi North 11.5 mph - N/A   Partly Cloudy
1:53 PM 61.0 °F - 18.0 °F 19% 29.75 in 10.0 mi Variable 4.6 mph - N/A   Clear
2:53 PM 62.1 °F - 19.0 °F 19% 29.75 in 10.0 mi WNW 12.7 mph 18.4 mph N/A   Mostly Cloudy
3:53 PM 59.0 °F - 25.0 °F 27% 29.76 in 10.0 mi NE 10.4 mph - N/A   Scattered Clouds
4:53 PM 60.1 °F - 21.9 °F 23% 29.77 in 10.0 mi NE 3.5 mph - N/A   Clear
5:53 PM 57.9 °F - 23.0 °F 26% 29.80 in 10.0 mi WNW 9.2 mph - N/A   Partly Cloudy
6:53 PM 57.0 °F - 24.1 °F 28% 29.81 in 10.0 mi WNW 10.4 mph - N/A   Partly Cloudy
7:53 PM 54.0 °F - 27.0 °F 35% 29.84 in 10.0 mi NNW 5.8 mph - N/A   Mostly Cloudy
8:53 PM 54.0 °F - 26.1 °F 34% 29.86 in 10.0 mi West 4.6 mph - N/A   Overcast
9:53 PM 53.1 °F - 23.0 °F 31% 29.86 in 10.0 mi West 6.9 mph - N/A   Partly Cloudy
10:53 PM 51.1 °F - 24.1 °F 35% 29.89 in 10.0 mi WNW 8.1 mph - N/A   Clear
11:53 PM 50.0 °F - 24.1 °F 36% 29.90 in 10.0 mi West 5.8 mph - N/A   Clear